Location: C�mpuri de-Sus
(45.9500°N, 22.5500°E)
Time: 04:38:00
(UTC+00:00)

NOSS 2-3 (D) - Pass Details

Date: 24 October 2021
Orbit: 538 x 1672 km, 63.3° (Epoch: 25 November)

Event Time Altitude Azimuth Distance (km) Brightness Sun altitude
Rises 16:20:27 0° 202° (SSW) 2,678 7.3 -9.7°
Reaches altitude 10° 16:22:34 10° 196° (SSW) 1,805 6.3 -10.1°
Maximum altitude 16:26:22 49° 122° (ESE) 755 3.7 -10.7°
Drops below altitude 10° 16:30:44 10° 47° (NE) 2,074 5.8 -11.5°
Enters shadow 16:30:51 10° 47° (NE) 2,118 5.8 -11.5°
